#timestamp,LO_Frequency,Hit,StdDev 
1545886815.6,286047001.1,N
1545886835.4,286046999.9,N
1545886855.3,286047002.8,N
1545886875.1,286047002.7,N
1545886895.9,286047001.9,N
1545886915.7,286047002.3,N
1545886935.5,286047001.6,N
1545886955.4,286047001.7,N
1545886975.2,286047002.5,N
1545886995.1,286047002.4,N
1545886996.0,286047002.4,N
1545887015.8,286047002.5,N
1545887035.6,286047004.0,Y
1545887055.5,286047000.4,P
1545887075.3,286047000.5,N
1545887095.2,286047000.1,N
1545887115.9,286047001.6,N
1545887135.7,286047002.8,Y
1545887155.6,286046998.1,P
1545887175.4,286047001.0,N
1545887195.2,286046998.6,N
1545887215.1,286047001.0,N
1545887216.0,286047001.0,N
1545887235.8,286047000.3,N
1545887255.7,286047000.1,N
1545887275.5,286047000.3,N
1545887295.3,286047000.9,N
1545887315.2,286047001.1,N
1545887335.0,286046998.9,N
1545887335.9,286046998.9,N
1545887355.8,286046999.4,N
1545887375.6,286046999.4,N
1545887395.4,286046997.3,N
1545887415.3,286046997.2,N
1545887435.1,286046997.9,N
1545887455.8,286046996.7,N
1545887475.7,286046999.6,N
1545887495.5,286046997.1,N
1545887515.3,286046997.7,N
1545887535.2,286046999.6,N
1545887555.0,286046996.6,N
1545887555.9,286046996.6,N
1545887575.8,286046997.1,N
1545887595.6,286046999.1,N
1545887615.4,286046996.6,N
1545887635.3,286046997.1,N
1545887655.1,286046997.5,N
1545887675.9,286046997.5,N
1545887695.7,286046996.5,N
1545887715.5,286046999.2,N
1545887735.4,286046998.8,N
1545887755.2,286046999.1,N
1545887775.0,286046996.5,N
1545887776.0,286046996.5,N
1545887795.8,286046997.1,N
1545887815.6,286046996.8,N
1545887835.5,286046996.9,N
1545887855.3,286046996.9,N
1545887875.1,286046999.2,N
1545887895.9,286046999.3,N
1545887915.7,286046997.3,N
1545887935.6,286046996.7,Y
1545887955.4,286047001.6,P
1545887975.2,286047002.1,N
1545887995.1,286047000.0,N
1545887996.0,286047000.0,N
1545888015.8,286047002.4,N
1545888035.7,286047001.7,N
1545888055.5,286047001.9,N
1545888075.3,286047001.7,N
1545888095.2,286047002.4,N
1545888115.0,286047004.0,N
1545888115.9,286047004.0,N
1545888135.8,286047001.9,N
1545888155.6,286047002.4,N
1545888175.4,286047002.3,N
1545888195.3,286047000.5,N
1545888215.1,286047002.6,N
1545888235.9,286047004.4,N
1545888255.7,286047002.7,N
1545888275.5,286046999.9,N
1545888295.4,286046999.7,N
1545888315.2,286047002.8,N
1545888335.0,286047002.1,N
1545888336.0,286047002.1,N
1545888355.8,286047004.0,N
1545888375.6,286047001.6,N
1545888395.5,286047002.1,N
1545888415.3,286047004.3,N
1545888435.1,286047004.1,N
1545888455.9,286047001.5,N
1545888475.4,286047001.6,N
1545888495.3,286047003.7,N
1545888515.1,286047003.8,N
1545888535.8,286047002.5,N
1545888555.7,286047000.2,N
1545888575.5,286047000.0,N
1545888595.4,286047002.0,N
1545888615.2,286047002.2,N
1545888635.0,286047000.2,N
1545888655.5,286047000.3,N
1545888675.3,286047002.4,N
1545888695.2,286047003.9,N
1545888715.0,286047004.3,Y
1545888715.9,286047004.3,P
1545888735.7,286047001.1,N
1545888755.6,286047001.2,N
1545888775.4,286047002.7,N
1545888795.3,286047000.4,N
1545888815.1,286047000.2,N
1545888816.0,286047000.2,N
1545888835.7,286046999.9,N
1545888855.5,286047000.7,N
1545888875.4,286047000.9,N
1545888895.2,286046998.8,N
1545888915.1,286046998.6,N
1545888916.0,286046998.6,N
1545888935.8,286046998.2,N
1545888955.8,286046998.7,N
1545888975.7,286046998.1,N
1545888995.5,286046998.3,N
1545889015.3,286046998.7,N
1545889035.2,286046999.0,N
1545889055.0,286047000.8,N
1545889055.9,286047000.8,N
1545889075.7,286047001.1,N
1545889095.6,286046998.7,N
1545889115.4,286046999.4,N
1545889135.3,286046998.9,N
1545889155.1,286046998.7,N
1545889156.0,286046998.7,N
1545889175.8,286046999.3,N
1545889195.7,286046998.4,N
1545889215.5,286046999.0,N
1545889235.3,286046999.3,N
1545889255.2,286046998.9,N
1545889275.0,286047000.8,N
1545889275.9,286047000.8,N
1545889295.8,286047001.0,N
1545889315.6,286046998.1,N
1545889335.7,286046998.3,N
1545889355.5,286046999.2,N
1545889375.4,286046998.6,N
1545889395.2,286046998.9,N
1545889415.0,286046998.3,N
1545889415.9,286046998.3,N
1545889435.8,286047000.3,N
1545889455.6,286047000.2,N
1545889475.5,286047000.9,N
1545889495.3,286046999.7,N
1545889515.7,286047000.8,N
1545889535.6,286046999.7,N
1545889555.4,286047000.2,N
1545889575.3,286046999.9,N
1545889595.1,286046999.8,N
1545889596.0,286046999.8,N
1545889615.8,286047000.3,N
1545889635.7,286046999.7,N
1545889655.5,286046999.8,N
1545889675.3,286047002.5,N
1545889695.2,286047000.3,N
1545889715.0,286046999.7,N
1545889715.9,286046999.7,N
1545889735.8,286047000.0,N
1545889755.6,286047002.2,N
1545889775.4,286047002.0,N
1545889795.3,286047001.5,N
1545889815.1,286047004.4,Y
1545889835.9,286047001.9,P
1545889855.7,286047001.5,N
1545889875.5,286047001.9,N
1545889895.4,286046999.8,N
1545889915.2,286047000.6,N
1545889935.1,286046998.1,N
1545889936.0,286046998.1,N
1545889955.8,286047001.2,N
1545889975.6,286047000.1,N
1545889995.5,286047002.3,N
1545890015.3,286047001.0,N
1545890035.1,286047000.2,N
1545890055.9,286047000.1,N
1545890075.7,286047001.0,N
1545890095.6,286046999.2,N
1545890115.4,286047001.2,N
1545890135.2,286047000.5,N
1545890155.1,286047000.0,N
1545890156.0,286047000.0,N
1545890175.8,286047000.4,N
1545890195.7,286046998.3,N
1545890215.5,286046998.1,N
1545890235.3,286046999.4,N
1545890255.2,286046999.4,N
1545890275.9,286046999.0,N
1545890295.7,286046998.8,N
1545890315.6,286047000.7,N
1545890335.4,286046998.1,N
1545890355.3,286046998.6,N
1545890375.1,286046998.2,N
1545890376.0,286046998.2,N
1545890395.8,286046999.7,N
